Location: New Plymouth
(39.0670°S, 174.0830°E)
Time: 09:45:54
(UTC+13:00)

NOAA 19 - Pass Details

Date: 26 August 2019
Orbit: 841 x 862 km, 99.2° (Epoch: 19 October)

Event Time Altitude Azimuth Distance (km) Brightness Sun altitude
Rises 19:43:23 0° 189° (S) 3,460 8.6 -21.6°
Reaches altitude 10° 19:48:05 10° 225° (SW) 2,518 8.3 -22.5°
Maximum altitude 19:49:12 11° 237° (WSW) 2,473 8.5 -22.8°
Drops below altitude 10° 19:50:18 10° 248° (WSW) 2,515 8.7 -23.0°
Sets 19:55:00 0° 285° (WNW) 3,444 9.5 -23.9°
